Theta_e
326 321 317 320 316 315 311 303 295 291 292 289 286 289 289 294 293 294 291 291 294 294 294 297 295 297 298 295 298 296 294 296 295 291 289 294 312 316 323 318 321 326 327 327 331 336 341 343 347 349 348 348 348 348 348 348 348 348 348 349 348 348 348 348 347 347 348 347 347 346 346 346 345 344 343 343 343 343 343 344 344 345 346 346 347 347 346 345 343 341 340 338 336 335 335 335 334
322 317 317 316 316 312 306 296 289 286 283 281 287 286 289 291 291 291 293 291 292 297 293 297 296 299 297 298 295 298 298 298 297 299 300 304 310 318 320 317 322 326 326 327 329 332 335 339 346 348 348 348 348 348 348 348 348 348 348 348 347 347 348 348 347 347 347 347 346 346 345 344 344 342 342 341 341 341 341 341 342 344 345 345 344 343 343 342 340 339 337 336 334 333 333 333 332
317 317 317 315 312 308 303 297 294 280 285 281 283 288 290 292 291 291 293 292 290 292 292 296 297 298 300 299 299 299 295 300 300 301 303 306 314 318 318 319 323 325 325 323 327 328 329 335 343 347 347 347 347 348 347 347 347 347 347 347 347 347 347 347 347 347 347 347 345 344 343 342 341 340 340 340 340 338 338 340 341 341 341 341 341 340 339 339 337 336 334 333 332 332 332 330 330
314 317 313 309 309 299 297 291 285 285 286 281 282 288 288 293 290 293 292 292 289 292 295 299 299 299 300 296 298 298 296 299 302 304 301 308 314 317 319 321 323 324 323 323 323 324 325 334 342 346 346 346 347 347 346 347 346 347 347 347 346 346 346 346 346 346 345 344 343 342 341 340 339 339 339 338 337 336 336 336 338 338 338 338 337 338 336 335 334 333 332 331 331 330 329 328 328
314 316 312 306 302 300 292 291 287 284 285 283 282 286 290 290 293 291 290 292 291 293 294 296 296 297 299 298 296 298 296 297 301 303 302 306 307 316 320 322 322 323 323 322 323 323 324 335 340 344 345 344 344 344 344 345 345 345 345 345 345 345 344 344 344 343 343 342 341 340 339 338 337 337 337 336 335 335 335 335 335 335 336 335 335 335 333 333 332 331 331 330 329 327 326 326 326
311 311 310 312 305 303 296 291 289 287 290 287 287 290 290 292 292 292 293 291 293 293 294 293 297 297 297 296 296 297 296 303 302 303 303 306 309 317 321 322 322 323 322 321 321 322 323 334 338 342 343 344 343 343 343 344 343 343 343 343 343 343 343 343 342 341 340 340 338 338 338 338 336 335 335 333 333 333 334 334 334 333 332 332 332 332 332 331 330 329 329 328 327 326 325 325 325
313 304 302 302 300 298 291 286 285 286 294 291 291 293 297 295 293 294 293 295 295 295 293 297 294 295 294 294 298 299 300 304 304 306 306 307 311 319 321 321 320 321 320 320 320 321 321 333 340 340 342 343 343 343 342 342 342 341 342 342 342 341 341 340 340 339 339 336 337 336 335 335 333 332 331 330 331 331 331 332 331 331 331 331 331 331 330 329 329 329 328 327 325 324 324 324 324
311 308 302 295 291 293 291 286 288 287 291 295 293 293 297 296 293 294 293 294 295 297 294 292 294 295 293 297 295 295 299 302 305 303 304 307 314 319 320 320 320 319 319 318 318 319 325 333 338 340 341 341 343 343 340 340 340 340 341 340 339 339 338 336 337 336 335 335 335 335 335 334 332 330 330 329 329 329 329 330 330 329 329 329 328 329 329 329 328 327 326 325 324 323 323 323 322
305 304 299 295 293 287 284 288 288 289 291 291 294 294 303 299 294 295 293 292 293 293 293 294 293 294 290 291 295 295 296 300 302 304 305 309 315 318 321 319 319 318 317 318 317 318 319 331 336 339 339 340 339 339 339 338 338 337 337 337 337 337 335 334 335 334 334 333 333 332 332 331 330 329 329 329 328 328 328 328 328 328 327 326 327 326 327 328 328 327 326 325 324 322 322 322 320
303 301 295 291 287 289 281 285 287 289 290 291 292 296 295 294 294 293 294 293 294 293 293 292 292 295 291 292 293 294 298 300 302 304 305 310 316 318 319 319 319 317 316 317 317 318 319 327 334 336 337 339 338 338 337 337 337 337 336 336 335 335 334 334 334 333 333 332 332 331 331 330 329 329 329 328 327 327 327 327 327 326 326 326 326 325 326 327 327 326 324 324 323 322 321 320 319
297 296 294 293 288 285 285 284 284 288 287 290 293 297 296 295 296 293 292 293 292 294 293 293 296 294 293 293 295 296 298 299 303 303 305 310 313 317 317 316 315 317 316 315 315 317 319 322 328 333 334 336 337 337 335 336 335 335 335 335 334 333 333 332 332 332 332 331 331 330 330 329 329 329 328 327 328 327 327 327 326 326 326 326 325 325 325 325 324 324 323 322 321 320 319 319 318
296 293 292 285 285 285 283 284 286 289 291 291 293 292 291 294 293 294 292 294 292 292 293 295 297 293 293 292 292 295 297 298 302 303 307 309 313 314 315 312 313 314 315 314 313 315 316 317 322 327 331 333 334 335 335 335 335 335 334 333 332 332 332 331 331 331 330 330 330 330 330 329 328 327 327 327 327 326 326 326 326 326 325 325 324 324 323 322 322 322 321 321 320 319 319 317 316
295 291 287 287 284 286 283 286 288 290 289 290 292 294 293 293 294 294 292 293 292 294 294 295 295 297 294 291 292 293 299 300 302 303 307 310 311 309 311 311 312 312 312 312 314 314 313 316 317 319 324 328 329 331 332 333 334 334 333 332 332 332 331 330 330 330 329 329 330 329 328 327 326 326 326 326 325 325 325 325 325 325 325 323 322 322 321 321 320 319 319 319 318 317 316 316 315
295 292 291 288 284 284 287 287 285 289 287 289 289 290 293 295 294 294 291 294 292 294 295 295 297 295 293 293 294 291 295 297 301 304 305 307 307 308 309 309 309 309 310 311 314 314 313 314 315 315 320 323 322 326 327 329 331 333 332 332 332 331 330 329 329 329 329 329 328 327 327 326 325 324 324 324 324 324 324 323 323 323 323 322 321 321 320 319 318 317 317 317 317 316 315 315 313
300 292 287 287 285 284 283 289 288 284 287 289 292 292 293 296 292 290 294 294 295 294 297 295 297 296 291 294 293 293 297 298 301 303 303 305 306 306 306 306 308 307 307 309 312 313 314 313 314 314 315 318 321 322 323 326 328 329 330 330 330 331 330 329 328 328 328 327 327 326 324 323 322 322 323 323 322 321 322 322 322 322 322 322 320 319 318 317 316 315 315 315 314 314 314 313 312
297 292 290 292 285 285 285 286 284 287 289 290 291 289 292 292 291 295 294 296 295 295 295 297 298 296 295 295 296 298 294 299 300 301 303 303 302 303 304 305 306 306 307 309 311 312 313 313 312 313 313 315 317 317 318 320 324 325 328 329 329 329 328 328 327 326 323 322 321 321 319 316 316 314 318 317 320 320 320 317 320 321 320 319 318 318 317 316 314 313 312 311 310 310 310 310 309
295 293 291 282 286 284 285 287 286 286 286 288 289 292 294 292 293 292 292 294 296 293 295 294 298 298 294 294 294 294 296 302 301 300 302 301 302 302 303 303 304 304 307 308 309 311 311 312 312 312 310 312 315 314 314 315 319 323 324 324 324 325 325 325 324 321 316 314 312 313 311 306 304 304 305 305 311 308 314 316 319 319 318 317 317 316 316 314 313 312 311 309 307 305 302 302 303
300 292 285 285 284 284 286 288 288 291 292 291 292 291 293 291 290 295 295 294 293 291 292 293 293 293 294 292 295 296 297 299 300 302 301 300 301 302 304 304 304 308 307 308 308 309 310 310 311 311 310 310 311 312 312 311 313 320 314 316 316 320 321 320 315 309 311 306 310 305 301 303 300 299 302 308 305 307 310 314 316 317 317 315 315 315 314 313 312 311 310 308 306 304 300 289 291
293 286 285 288 284 290 291 289 290 290 292 290 290 289 292 294 294 294 294 290 290 292 292 291 294 296 295 293 296 296 298 298 300 302 301 301 301 303 305 305 305 305 307 307 309 308 309 310 310 311 310 309 309 309 310 310 311 311 310 312 313 316 314 310 307 306 303 302 299 298 299 298 297 298 299 302 303 309 309 313 315 315 315 313 312 312 312 311 310 309 308 305 303 299 290 288 288
294 291 287 286 288 289 290 291 292 292 293 294 293 291 289 291 293 293 294 292 289 291 293 292 292 296 297 295 293 296 297 298 299 301 301 302 302 304 304 305 305 306 309 309 309 308 308 309 309 310 309 307 308 308 308 309 308 308 308 309 310 309 306 304 302 301 300 298 296 295 295 296 296 297 307 308 307 302 306 309 310 310 310 309 308 306 310 309 308 306 303 300 296 291 288 288 287
294 293 288 290 289 290 294 292 294 294 292 292 292 289 289 291 290 292 290 292 295 294 295 296 297 296 297 295 294 295 296 296 297 300 300 301 301 303 305 306 307 308 308 307 305 307 307 308 308 308 308 306 307 307 307 308 306 305 306 306 306 305 302 301 299 298 297 295 294 294 294 296 296 298 297 296 294 294 292 293 294 293 293 294 297 289 290 291 289 287 289 291 287 289 288 288 287
294 295 295 293 289 291 295 293 291 291 290 291 288 290 296 291 289 290 292 292 295 297 295 295 298 299 297 295 294 294 295 296 297 298 299 300 300 301 302 303 303 301 303 305 307 307 307 308 308 307 306 305 307 307 307 307 305 305 304 304 303 301 301 298 296 296 294 293 293 293 295 295 296 294 293 292 291 290 289 288 289 289 289 290 291 287 287 287 287 287 288 288 287 287 287 287 288
293 293 294 295 292 294 293 292 290 290 291 290 290 293 291 292 294 288 291 294 299 302 296 295 296 297 297 295 293 294 295 295 296 297 299 299 299 300 301 302 303 302 302 306 306 306 306 306 307 306 306 305 304 305 305 305 304 305 304 302 302 300 298 297 294 293 294 292 292 294 294 294 293 291 291 290 289 288 287 287 287 287 287 287 288 287 287 287 286 286 286 286 286 286 286 286 286
295 293 290 294 294 296 297 297 295 291 291 294 293 290 292 294 293 290 292 296 299 301 296 296 295 293 293 293 294 296 296 296 297 298 299 300 300 301 301 301 302 302 300 302 303 305 305 306 306 306 306 305 304 303 304 304 303 302 302 303 302 301 298 297 294 293 293 292 292 294 294 293 292 290 290 288 288 287 287 287 287 286 286 286 288 287 287 286 286 285 286 285 286 286 285 285 285
294 294 292 293 293 294 295 293 291 291 292 294 291 292 296 296 295 290 292 295 298 299 298 295 295 293 291 293 294 295 295 296 297 298 298 299 300 301 300 299 297 298 300 300 301 302 303 305 306 306 306 305 304 302 303 303 301 301 300 300 299 301 297 296 294 293 293 292 292 293 294 291 290 290 289 288 287 287 287 286 286 286 286 286 287 286 287 286 286 285 286 285 284 284 285 285 285
293 297 293 290 292 292 293 291 290 290 292 290 292 293 295 294 291 292 296 298 300 299 297 295 293 292 292 293 294 294 295 296 297 297 297 299 298 297 298 298 297 297 299 300 300 300 301 303 304 305 306 305 304 302 303 302 301 300 299 299 299 300 296 295 293 293 292 292 292 293 293 291 290 290 289 287 287 287 286 286 286 286 286 286 286 286 286 285 285 285 284 284 284 284 285 287 284
290 291 291 292 293 291 290 290 290 289 288 286 292 293 294 291 292 293 294 296 295 294 293 289 290 292 293 293 293 293 295 296 296 298 296 296 296 297 298 297 297 298 298 298 299 299 300 300 302 304 305 305 303 302 302 302 300 300 299 299 298 297 296 294 294 293 292 292 292 292 292 291 290 289 288 287 286 286 286 286 285 286 285 286 286 286 286 286 285 285 284 284 284 283 284 285 284
291 291 289 290 289 289 289 288 291 289 292 288 293 293 293 289 289 293 298 296 294 293 294 294 290 292 293 292 292 293 294 296 296 295 297 296 297 297 297 297 297 298 297 297 298 298 297 298 301 303 304 304 303 302 302 301 300 300 299 297 297 296 295 294 293 292 293 292 292 292 291 291 291 288 288 288 287 286 285 285 285 285 285 285 286 285 286 286 285 285 284 284 283 284 284 284 284
291 290 291 290 288 291 294 291 293 289 291 287 290 289 288 289 288 296 297 296 293 292 293 294 294 294 293 292 291 291 293 295 294 295 297 298 299 299 298 299 299 298 299 298 298 297 297 297 298 300 303 303 302 301 301 301 300 299 297 296 296 295 294 293 293 292 293 292 292 291 291 290 291 289 288 288 289 286 285 285 284 286 285 286 286 286 286 285 285 285 285 284 283 283 283 283 284
290 287 286 290 289 289 292 288 286 288 290 287 289 285 281 290 294 295 296 294 291 290 292 294 294 294 294 293 291 292 293 292 293 296 297 298 299 299 298 300 299 299 298 298 296 296 297 297 298 299 300 301 301 301 300 299 298 298 297 296 295 294 294 293 293 292 292 292 292 291 290 290 290 289 288 287 287 286 285 285 284 285 284 285 285 286 285 284 284 284 284 285 287 283 282 282 282
290 286 287 285 284 286 290 291 286 289 288 289 290 286 285 290 294 297 294 291 290 292 293 293 293 293 294 294 293 293 294 293 294 296 297 298 299 299 299 299 298 299 298 297 297 297 297 297 297 297 299 299 300 300 299 299 298 297 296 295 294 294 294 293 293 292 292 292 292 291 290 291 290 289 289 288 287 286 285 284 284 284 285 285 285 285 284 284 284 283 283 282 282 281 282 284 281
283 286 282 279 283 283 289 291 288 289 287 286 289 285 288 291 294 297 290 289 288 289 291 292 292 293 294 294 294 293 294 295 294 294 296 297 298 299 299 299 299 298 298 298 298 297 296 296 297 297 297 298 299 300 299 298 297 296 295 295 294 293 293 293 292 292 292 291 292 291 290 290 290 289 288 288 287 286 285 284 284 284 285 285 284 284 284 284 283 283 283 282 281 282 282 281 281
279 285 283 285 281 283 285 292 288 290 288 288 291 288 284 286 291 293 291 292 288 289 290 291 292 292 293 294 294 295 296 296 294 294 295 295 297 298 299 299 299 299 299 298 298 296 296 296 296 296 296 296 297 298 298 297 296 294 294 293 293 293 293 292 292 291 291 290 291 291 290 290 290 289 288 288 287 286 285 284 283 284 285 284 283 283 283 284 283 283 282 284 281 281 281 281 281
283 281 282 281 283 284 283 286 293 286 290 285 287 285 288 291 290 291 293 293 288 288 291 293 294 294 295 294 293 295 296 296 297 298 296 295 296 297 298 300 299 299 298 298 298 297 297 296 296 296 296 296 297 297 297 296 295 293 292 292 292 292 292 292 291 290 291 290 290 291 290 290 290 289 288 288 287 287 286 284 283 284 284 283 283 283 283 283 282 282 281 281 281 281 279 280 280
283 281 280 282 280 282 286 283 286 284 287 285 284 286 288 290 291 291 293 294 293 292 293 294 294 294 295 294 294 295 296 296 297 299 299 296 295 296 297 297 297 297 298 298 298 297 297 296 295 296 296 295 296 296 296 295 293 291 290 290 290 290 291 290 290 289 290 290 290 290 290 290 290 289 288 288 287 287 285 284 283 284 284 283 283 283 282 282 282 280 282 281 281 280 280 280 280
286 285 284 281 282 283 282 287 290 288 288 284 284 286 289 290 290 292 293 294 293 293 294 294 293 293 294 294 295 295 296 296 298 300 299 296 295 295 295 295 297 297 297 297 297 297 296 295 295 295 295 295 295 295 295 294 292 291 290 288 289 290 290 290 289 290 289 290 291 290 290 290 290 289 288 287 287 286 285 284 283 283 283 283 283 282 282 282 281 281 281 281 281 281 281 280 279
285 284 282 284 284 285 286 288 290 286 285 286 288 288 288 289 290 291 293 293 292 293 293 294 294 294 294 295 295 295 296 296 299 299 298 297 295 294 294 294 295 296 296 296 296 296 296 296 295 294 295 295 295 294 294 294 292 291 290 290 290 290 290 290 290 290 290 290 290 290 290 290 289 289 288 287 287 287 285 284 283 283 283 283 283 283 283 282 281 281 282 282 280 279 279 279 280
285 284 282 285 282 285 288 289 290 284 285 281 284 288 288 289 291 292 293 292 291 293 294 295 295 295 295 295 296 296 297 298 296 297 298 295 293 293 293 293 294 294 295 295 295 296 296 296 295 295 294 294 294 295 295 294 294 293 292 291 291 291 290 290 290 290 290 290 290 290 289 289 289 288 288 287 287 286 285 284 283 283 283 283 283 282 281 283 282 281 282 279 279 278 278 279 279
284 285 284 282 284 286 288 289 291 287 283 285 285 285 287 288 290 292 292 293 294 294 294 295 295 296 296 296 296 296 296 296 296 297 297 295 293 293 293 293 293 295 295 295 296 296 295 295 295 295 294 294 294 295 295 294 294 294 293 292 292 290 291 291 290 291 290 289 289 289 289 289 289 288 288 287 287 286 285 284 283 283 283 283 283 282 282 281 281 282 281 281 279 279 279 280 278
283 282 280 283 285 282 284 284 282 283 285 285 286 286 288 290 291 292 294 294 294 294 294 295 296 295 295 296 297 295 295 296 296 297 297 295 292 292 291 291 292 293 293 293 294 295 295 295 295 295 294 294 294 294 295 295 294 292 291 289 290 290 289 289 289 288 288 288 287 288 289 289 288 288 287 287 287 286 285 285 284 283 283 283 283 282 281 281 281 281 280 280 281 279 277 279 281
284 285 284 284 284 286 285 284 283 284 285 282 284 286 288 289 288 288 291 292 292 293 293 294 295 296 296 297 295 295 295 296 296 297 297 296 292 291 290 291 290 292 293 294 294 295 296 295 295 295 295 294 294 294 294 293 292 290 288 288 288 286 287 288 287 285 287 288 288 287 288 288 288 288 287 287 287 286 285 285 284 283 283 283 283 282 282 282 282 282 281 280 280 280 278 277 279
285 282 285 287 288 286 284 285 284 280 281 279 282 282 285 284 286 287 289 287 287 290 290 291 293 295 295 292 294 295 295 295 295 295 296 295 293 292 290 289 290 292 293 294 295 295 295 295 295 294 294 294 294 293 294 293 292 291 289 288 287 288 287 286 287 288 286 287 288 288 288 288 288 288 287 287 287 286 285 285 284 283 282 283 283 282 282 281 281 281 281 281 279 279 280 278 277
283 283 285 288 287 285 283 283 282 277 276 282 281 279 281 282 285 286 285 284 288 287 288 292 293 294 291 292 293 293 294 294 292 293 293 293 292 291 291 290 291 291 293 294 293 294 294 294 294 294 294 294 294 293 293 293 292 291 291 291 290 290 289 289 290 290 289 289 289 288 288 287 288 288 287 287 286 286 285 284 284 283 283 283 283 282 281 281 281 282 281 280 279 281 279 277 278
282 282 283 284 283 283 283 282 283 281 280 282 283 282 278 282 283 286 288 285 287 289 290 291 292 292 291 292 293 292 293 292 292 292 292 292 291 291 293 293 291 292 293 291 293 293 293 293 293 293 293 293 293 293 293 293 292 291 291 291 291 290 291 290 289 290 289 289 289 288 287 287 287 287 287 286 286 286 285 284 284 283 283 282 283 282 282 281 281 281 281 280 279 280 280 280 277
281 284 282 283 283 283 281 282 280 278 279 279 280 281 279 279 284 282 285 284 287 287 290 292 293 292 292 292 293 294 293 292 291 291 291 291 291 291 291 292 292 291 291 292 292 293 292 291 291 291 292 292 292 292 293 293 293 292 291 291 291 291 291 290 288 289 289 288 287 287 287 286 286 287 287 286 286 285 285 284 284 283 283 282 283 282 281 281 281 281 280 279 279 279 279 279 279
284 283 282 281 281 280 281 280 280 279 276 278 279 282 278 282 287 282 281 284 284 287 291 292 292 291 291 293 293 293 293 291 292 290 291 290 290 290 290 289 289 290 290 290 290 291 290 290 290 290 291 292 292 292 292 292 292 292 291 291 291 291 290 287 287 287 287 287 287 286 286 286 286 286 286 286 285 285 285 284 284 283 283 282 283 282 281 280 280 280 281 280 279 279 278 279 279
283 284 285 282 280 278 277 277 278 277 274 280 281 282 282 279 284 283 283 284 286 289 288 290 289 288 290 291 291 293 292 291 292 290 290 290 289 288 287 288 289 287 287 288 289 289 289 290 290 290 291 291 291 291 292 291 292 292 291 291 291 290 289 287 286 286 286 285 286 286 286 286 286 286 286 285 285 285 284 284 284 283 283 283 283 281 281 281 280 280 280 279 279 279 279 278 281
286 285 280 280 283 276 277 268 275 274 276 280 281 282 283 279 280 282 281 281 282 286 287 289 289 288 290 290 290 290 290 291 290 290 292 290 290 290 288 289 287 287 287 288 288 288 288 289 289 289 289 290 290 290 291 291 291 291 291 291 291 291 290 288 287 286 286 286 286 286 286 286 285 286 285 285 284 284 284 284 283 283 283 282 282 282 281 281 280 280 280 280 279 279 279 279 278
285 281 284 279 273 271 270 271 270 270 278 278 280 282 279 281 287 284 284 287 285 284 288 289 289 289 287 288 290 291 290 289 289 289 289 291 291 291 290 290 288 286 287 287 287 287 287 288 288 289 289 289 289 290 290 291 291 291 291 291 291 291 290 289 288 288 287 287 287 286 285 285 285 284 285 285 284 284 284 283 283 282 282 282 282 282 281 280 280 280 280 280 279 279 279 279 278
283 283 279 276 272 269 267 263 264 269 275 276 279 281 281 285 285 289 291 294 295 291 287 287 289 290 289 290 290 291 291 290 290 289 288 289 290 290 290 290 289 287 286 287 286 287 287 288 288 288 289 289 289 289 290 290 290 291 291 291 291 291 290 290 289 289 288 287 287 287 286 286 285 285 285 285 285 284 284 284 284 283 283 282 282 282 281 281 280 280 280 279 279 280 279 279 279
285 283 285 282 278 272 270 270 278 279 279 277 277 277 275 274 281 283 290 289 284 283 286 288 286 286 286 287 287 288 288 288 288 289 290 289 290 289 291 291 290 288 287 286 286 286 287 288 288 288 288 288 289 289 289 289 290 290 291 291 291 290 291 290 290 290 289 287 287 287 287 287 286 286 286 286 285 284 284 284 284 283 283 282 282 281 281 280 280 280 280 280 280 279 279 279 278
283 282 282 279 282 281 281 283 279 282 277 273 273 278 277 283 285 286 283 284 286 286 285 286 287 285 285 287 289 289 288 289 289 289 292 291 290 288 290 289 289 288 287 286 286 286 287 288 288 288 289 289 289 289 289 290 290 290 290 290 290 290 290 290 290 289 289 288 288 287 287 287 287 287 286 286 285 285 284 284 283 283 283 282 282 281 281 280 280 280 279 279 279 280 279 278 278
282 284 281 285 284 285 281 282 283 278 275 278 281 279 283 285 290 288 285 286 287 285 285 286 287 286 283 286 287 287 288 288 289 291 291 292 292 291 289 290 289 287 287 287 288 287 288 288 288 288 288 288 288 289 289 289 289 289 289 290 290 289 289 289 290 289 289 288 287 287 287 287 287 286 286 286 285 285 284 284 283 283 282 282 281 281 281 280 280 280 279 279 279 279 279 278 278
284 280 284 285 285 284 282 277 276 277 277 279 285 282 283 282 281 285 283 283 285 285 285 281 282 281 284 288 287 288 290 290 289 289 289 290 293 296 298 299 295 293 292 290 289 288 287 287 287 288 288 288 288 288 288 288 288 288 289 289 289 290 289 289 289 289 288 287 286 286 286 286 286 286 286 286 285 284 284 284 283 283 282 282 281 281 281 280 280 280 279 279 279 279 278 278 278
285 284 286 284 280 279 281 275 275 276 276 279 282 284 283 285 285 289 289 291 288 286 284 283 286 286 287 286 287 288 288 289 290 292 294 296 297 295 295 294 293 291 289 288 289 289 288 286 286 287 288 289 288 289 288 288 289 289 289 289 289 289 289 289 289 288 287 287 286 286 286 286 284 285 285 285 284 284 284 284 283 283 282 281 281 281 281 280 280 279 279 279 279 278 278 278 277
286 287 284 285 283 281 279 281 279 281 277 279 279 284 281 289 289 290 289 287 284 285 284 284 284 286 286 286 288 290 292 294 294 294 294 293 293 292 291 290 290 290 289 289 288 287 287 287 287 287 288 287 286 287 287 288 288 288 289 289 289 289 289 289 288 288 287 286 286 286 285 285 285 285 285 284 284 284 284 283 283 283 282 281 281 281 280 280 280 280 279 279 279 278 278 277 277
283 283 281 285 283 284 284 283 281 281 279 279 278 278 284 290 294 293 292 285 283 285 288 287 288 286 287 288 289 291 292 291 290 290 290 289 289 289 289 288 289 289 289 290 289 287 287 285 286 286 286 287 286 287 287 288 288 288 288 288 289 288 288 289 288 287 287 286 286 286 286 286 284 284 284 284 284 284 284 283 283 283 282 281 281 280 280 280 280 279 279 279 278 278 278 278 277
284 286 284 286 284 282 280 279 285 282 281 278 279 277 285 291 296 295 295 288 284 285 285 287 286 287 290 294 296 290 288 288 287 287 287 287 287 287 287 287 287 287 288 288 289 289 289 289 289 288 287 286 286 286 286 287 287 288 288 288 288 287 287 287 287 287 287 287 286 286 286 285 285 285 284 284 284 284 284 283 283 283 282 282 281 281 280 280 280 279 279 279 278 278 278 278 277
Wind_Speed
4 4 3 0 2 2 2 6 0 3 2 4 3 1 3 1 2 4 4 2 1 2 2 1 6 6 4 4 9 4 2 8 7 8 4 2 2 2 6 1 1 6 7 5 6 5 7 8 11 13 15 14 14 13 13 13 13 13 13 12 11 11 11 12 11 11 11 11 11 10 10 9 8 8 8 7 6 7 7 8 9 9 10 11 12 12 14 14 14 14 13 14 13 12 12 11 11
3 3 2 0 0 1 1 1 3 3 4 3 6 2 4 2 1 5 4 5 3 1 3 1 3 0 4 3 2 1 3 6 7 1 3 3 5 2 6 3 4 10 7 5 5 5 5 6 11 12 14 14 14 14 13 13 13 13 13 13 13 13 12 11 12 11 12 12 11 10 9 8 8 7 7 7 5 5 6 5 7 8 9 11 10 8 9 10 12 11 12 13 12 11 11 11 11
2 4 1 3 3 4 2 4 3 1 0 3 8 7 2 1 4 6 8 7 3 2 1 0 1 0 1 2 1 4 7 0 2 2 2 3 2 7 8 4 6 6 7 4 5 4 4 5 9 12 14 14 14 14 14 14 13 12 11 12 13 13 12 12 12 12 12 12 10 9 8 7 7 6 6 6 5 4 5 7 9 8 6 7 8 10 10 11 11 10 11 11 11 11 11 11 11
0 4 1 3 2 3 1 3 3 4 2 5 5 5 3 2 6 6 5 7 4 0 0 1 3 1 2 4 3 2 5 2 5 5 1 5 8 4 10 8 7 6 5 5 4 4 4 5 9 11 13 13 13 13 13 12 12 12 12 11 12 12 12 12 12 11 10 9 9 9 7 6 6 6 6 6 5 4 5 5 7 7 6 7 7 10 11 11 11 11 11 10 11 11 12 12 12
1 2 2 3 3 1 1 0 2 3 3 5 3 4 4 6 7 4 3 2 3 3 1 1 0 1 1 2 0 1 3 3 3 5 1 2 1 4 8 8 7 8 8 6 5 4 4 6 7 9 13 14 13 13 12 11 11 11 11 11 11 10 11 10 9 9 9 8 8 8 7 6 6 6 6 6 5 5 5 6 6 6 7 8 8 11 11 11 11 10 11 11 11 12 12 12 12
3 2 4 1 0 2 5 0 1 3 8 5 1 5 4 6 4 2 6 6 3 3 2 1 1 1 1 2 4 1 3 1 0 1 2 3 4 6 8 7 7 8 7 6 5 6 6 6 6 8 14 13 13 13 13 11 11 10 10 10 10 10 10 10 9 9 8 8 8 8 8 8 7 7 7 6 6 6 7 8 9 10 10 10 10 10 11 11 11 11 11 11 11 12 12 12 12
1 3 5 4 2 4 4 2 5 5 10 7 4 6 8 3 4 1 5 2 1 1 2 1 1 0 1 3 2 5 2 2 2 1 4 1 4 8 9 7 6 8 6 6 5 6 6 7 8 10 11 11 14 14 13 12 12 11 11 11 11 11 11 11 10 10 10 10 9 9 8 7 7 7 7 7 7 8 8 9 10 10 11 10 10 10 11 11 11 11 11 11 12 12 12 12 12
2 1 1 1 1 2 0 2 5 5 6 7 3 4 8 3 1 0 3 1 3 2 0 3 0 2 7 2 2 1 2 3 2 1 1 2 5 8 9 7 8 7 6 4 4 4 6 8 10 10 10 11 9 11 12 12 13 15 13 13 13 11 12 12 11 10 10 9 9 9 8 9 9 9 9 9 9 9 9 9 10 10 11 10 10 11 11 11 11 11 11 12 12 12 12 12 12
5 5 0 3 1 2 1 4 5 3 8 4 9 7 10 5 3 2 5 3 3 1 1 1 4 2 3 4 4 3 5 1 2 3 3 4 7 9 8 9 9 8 6 5 4 4 4 7 10 11 10 12 11 11 11 13 13 12 12 13 12 12 11 10 10 10 10 10 10 10 11 11 10 10 10 10 10 10 10 10 10 10 10 10 11 11 10 11 11 12 12 12 12 12 12 12 12
2 2 2 1 3 3 3 6 1 5 5 3 4 9 6 1 1 4 3 5 5 1 1 2 2 6 1 5 5 5 1 3 1 2 2 5 7 7 7 8 6 8 6 6 4 4 4 7 11 11 10 12 13 13 14 15 14 13 13 13 13 12 12 12 12 10 10 11 11 11 11 11 11 11 12 11 11 10 10 10 11 11 10 11 11 11 11 11 11 12 12 12 12 12 12 12 12
1 5 2 1 1 1 4 7 4 7 4 4 9 11 11 4 3 2 4 3 1 3 2 3 1 6 0 5 5 1 3 3 3 4 5 6 5 8 7 5 5 7 7 5 5 4 4 4 10 10 10 11 12 14 16 14 15 15 15 14 14 14 13 12 13 12 12 12 12 12 12 12 12 12 12 12 12 11 11 11 11 11 11 11 11 11 11 11 12 12 12 12 12 12 12 12 12
1 1 2 1 2 3 4 3 6 9 8 4 4 2 1 3 3 1 2 3 1 3 4 6 1 4 1 2 4 2 4 4 5 1 7 5 6 5 6 4 4 5 5 5 4 4 4 4 4 6 10 9 10 12 11 12 14 14 14 15 15 14 13 14 13 13 13 13 13 13 13 13 12 12 12 12 12 12 12 12 12 12 12 12 12 12 12 12 12 12 12 12 12 12 12 12 12
3 1 6 2 1 1 1 2 6 4 6 5 4 1 0 6 3 2 2 2 0 2 4 11 1 1 3 3 4 5 2 4 4 1 5 6 5 4 4 4 4 4 4 5 5 4 4 4 4 4 6 7 8 10 9 10 11 12 15 15 15 14 14 14 13 14 14 14 14 14 13 13 13 12 13 12 12 12 12 12 13 13 13 12 12 12 12 12 12 12 12 12 12 12 12 12 12
3 5 4 2 2 0 1 4 2 3 6 4 3 3 1 0 3 3 4 2 5 2 2 1 1 3 4 2 7 4 4 3 1 3 3 5 4 3 4 4 4 4 4 4 6 5 4 4 4 4 5 5 4 6 7 9 10 11 11 12 12 12 13 14 14 14 14 14 14 13 12 12 12 13 13 13 13 13 13 13 13 13 13 13 13 13 13 12 12 12 12 12 12 12 12 12 12
1 2 4 2 0 1 3 1 1 1 7 2 3 1 1 5 2 1 5 2 8 4 0 1 4 3 5 4 8 3 1 2 2 4 5 4 4 4 3 3 4 3 4 4 4 6 6 4 5 4 4 4 5 5 4 7 10 10 11 10 10 11 12 12 13 14 13 12 13 12 11 10 10 10 11 12 13 13 12 12 13 13 13 13 13 13 13 13 13 12 12 12 12 12 13 13 13
5 5 3 0 2 1 5 3 0 0 8 2 3 1 1 6 2 1 5 5 2 1 0 3 0 4 2 4 5 1 3 2 3 6 6 6 3 3 2 2 3 3 4 4 5 5 6 6 5 5 5 5 4 4 5 5 7 9 10 10 11 12 12 12 12 12 11 10 10 10 10 7 7 6 9 7 11 10 9 7 12 13 13 13 13 13 13 13 13 13 13 12 12 12 13 13 13
2 4 0 2 5 3 4 3 3 3 5 3 5 1 0 4 1 3 1 0 2 3 0 2 5 0 5 5 1 4 1 4 6 6 6 4 5 3 1 2 3 4 4 6 6 7 6 7 6 5 5 5 5 5 5 5 5 8 8 10 11 11 11 11 11 10 9 9 9 9 9 6 5 4 5 5 8 5 8 9 11 13 13 13 13 13 13 13 13 13 13 13 13 13 12 12 13
1 1 3 2 5 3 6 5 9 1 1 4 4 1 2 6 3 1 1 1 1 3 3 5 5 7 5 2 0 2 4 7 7 10 7 7 5 5 6 6 5 10 8 7 7 6 7 7 7 6 6 6 5 5 4 4 5 7 5 6 6 8 9 10 8 6 7 6 9 7 5 5 5 4 4 6 5 5 6 9 11 13 14 13 13 13 13 13 13 13 13 13 13 12 12 7 6
3 2 2 8 5 7 8 5 6 1 7 4 3 2 2 8 1 2 2 3 2 5 5 3 7 10 6 2 2 5 7 6 9 10 12 13 11 13 12 9 9 6 9 9 9 9 7 6 6 8 7 6 6 5 5 4 5 5 5 5 5 6 6 6 6 6 6 6 5 5 5 5 5 4 4 4 5 8 7 9 11 13 14 14 13 14 13 13 13 13 13 13 13 12 7 6 6
2 4 4 7 8 5 5 4 6 9 3 6 7 4 2 4 1 1 2 7 3 8 10 6 6 12 11 5 3 5 7 8 9 12 13 14 13 14 11 11 11 12 12 11 10 6 7 9 9 8 8 7 7 6 5 6 5 5 6 6 6 6 5 6 6 6 6 6 6 6 6 5 5 5 6 8 7 5 6 8 10 10 11 10 11 8 11 12 13 13 13 12 8 5 6 6 5
1 2 4 5 3 2 6 9 10 8 1 3 4 2 4 6 6 1 2 5 10 11 11 12 13 13 13 7 6 5 8 8 9 9 11 12 12 10 12 15 16 15 10 5 5 10 11 10 8 8 7 8 8 7 7 7 6 6 6 6 6 6 6 6 6 6 6 6 6 6 6 5 5 5 4 5 5 5 4 4 5 5 5 5 7 6 6 6 6 6 6 6 5 5 5 4 4
4 9 5 5 1 2 7 7 6 4 3 3 2 5 10 1 1 5 5 7 13 9 8 10 14 14 9 8 8 5 7 10 12 12 14 15 17 16 12 8 6 4 5 8 13 10 11 10 9 7 7 8 8 8 8 7 7 7 7 6 6 6 6 6 6 6 6 6 6 6 6 6 6 6 4 5 4 5 5 5 5 5 5 5 4 6 5 5 5 5 5 5 5 4 4 4 3
5 3 6 6 6 6 1 2 4 3 2 2 4 5 5 5 7 4 7 11 17 15 6 8 11 10 8 3 5 6 8 12 13 16 16 15 14 14 13 12 11 11 10 13 8 7 8 9 9 8 10 8 8 7 7 7 8 7 7 7 8 6 6 6 6 6 6 6 6 7 8 7 6 6 6 5 5 5 5 5 5 5 6 6 4 7 5 5 5 6 5 5 3 4 3 3 3
2 8 1 7 5 11 9 5 1 3 4 8 3 5 8 10 12 1 8 13 19 20 6 8 8 5 3 5 8 12 14 15 17 19 18 21 21 21 19 17 13 7 5 9 8 9 10 13 11 10 10 10 9 8 8 8 7 7 8 7 7 7 7 7 7 6 6 7 6 6 6 7 8 7 6 6 5 4 5 4 5 5 6 6 4 6 7 5 5 5 4 4 3 3 3 2 3
4 7 4 5 1 7 7 5 5 6 10 8 4 7 19 11 9 3 8 11 17 18 11 7 8 8 6 8 9 10 10 11 13 15 10 11 10 11 7 6 5 7 12 11 10 10 12 12 12 13 11 12 9 9 9 8 7 7 7 8 8 8 8 8 8 7 7 6 6 7 6 8 6 6 7 6 5 5 4 5 5 5 5 5 5 5 5 6 5 5 4 4 3 3 3 3 3
6 13 1 3 3 6 6 5 6 7 7 3 2 14 17 13 6 15 19 16 22 14 11 8 7 8 9 12 12 10 12 14 14 11 17 13 8 8 12 10 9 12 16 11 11 11 8 10 13 15 14 13 11 10 9 9 9 9 9 9 8 8 8 8 7 7 7 8 8 7 7 7 8 8 7 6 7 6 5 4 5 5 5 5 5 6 4 6 6 5 4 4 4 3 3 2 3
3 3 4 6 7 6 5 6 5 5 5 5 7 11 16 3 4 14 6 12 3 3 8 3 3 8 10 9 9 10 11 15 17 14 6 7 9 12 15 11 13 17 9 13 12 11 9 10 13 13 12 11 10 12 10 10 9 10 9 8 8 9 8 7 7 8 7 8 8 8 7 7 7 6 7 7 6 6 5 5 5 5 6 5 4 5 3 5 5 5 6 6 5 5 4 2 3
1 1 5 8 5 7 8 5 11 1 7 10 10 12 11 5 2 17 17 7 1 6 10 10 6 9 10 8 9 8 9 14 9 5 14 11 14 15 15 14 18 14 13 16 13 9 10 14 13 13 14 13 12 12 11 11 11 11 10 8 9 8 8 8 8 8 8 8 8 9 8 8 7 6 7 7 6 7 6 6 5 6 6 4 4 5 5 4 4 3 3 3 3 4 5 4 3
1 2 6 9 5 10 10 6 8 9 7 5 7 2 5 5 8 20 17 6 1 3 9 13 11 10 10 8 8 8 12 11 6 9 16 17 14 11 16 18 17 15 14 13 11 10 15 13 13 14 14 13 14 15 14 12 10 10 10 10 9 8 8 8 9 9 9 8 8 9 8 8 7 8 7 8 7 7 6 6 5 5 5 5 4 4 4 4 4 4 4 3 4 3 4 4 3
1 1 1 10 7 10 10 4 2 6 3 7 6 9 6 13 19 17 11 6 4 3 9 12 11 10 10 8 7 9 10 8 10 15 15 15 14 12 16 16 15 13 10 9 9 14 13 9 10 10 13 16 17 14 12 11 12 11 10 9 9 9 9 10 10 9 8 8 8 9 9 9 8 7 8 7 6 7 6 6 6 5 5 4 5 5 6 5 5 5 5 4 3 4 5 3 4
4 3 1 4 7 10 4 1 3 1 3 9 3 9 6 11 17 21 7 5 6 7 9 11 9 9 10 10 7 10 12 10 15 16 16 15 13 11 15 12 11 13 8 9 16 18 11 13 11 11 14 16 15 15 15 14 12 12 11 10 10 11 10 10 9 8 8 8 8 9 9 9 8 8 8 8 7 7 7 6 6 6 5 5 6 5 6 5 4 5 5 6 4 5 4 3 4
1 3 6 3 6 7 14 8 6 9 1 3 5 9 13 11 15 21 1 2 2 5 8 11 10 10 11 10 10 10 14 11 12 13 16 16 14 13 14 16 12 11 15 16 15 10 15 14 13 13 14 17 17 18 16 15 14 12 11 10 10 11 10 10 9 10 9 8 9 8 9 9 9 9 9 8 8 7 7 7 7 6 5 6 6 5 5 6 5 4 2 4 6 3 3 3 2
3 5 6 10 3 7 9 12 3 10 3 2 11 12 4 8 14 15 8 2 4 5 9 11 12 12 13 11 10 12 14 15 10 13 15 14 13 14 14 14 14 17 16 14 14 13 13 14 15 16 17 19 18 16 14 12 11 12 12 11 12 11 10 10 9 8 8 8 8 8 9 9 9 9 9 9 8 8 7 7 6 6 5 6 6 5 5 5 5 5 2 0 3 5 4 3 2
7 1 7 4 7 3 5 9 12 3 8 4 6 7 13 12 8 9 15 11 3 6 12 16 15 14 14 12 11 14 16 16 19 16 15 13 12 13 15 13 12 12 11 13 13 15 17 15 15 16 15 15 14 15 15 13 11 9 8 8 8 9 9 8 7 8 8 8 8 9 10 10 9 10 10 9 8 8 7 7 6 7 6 6 6 5 5 4 3 4 5 1 3 5 4 4 3
9 4 4 8 4 7 13 3 5 2 1 4 2 11 16 14 12 12 14 17 16 15 17 17 16 15 16 14 14 18 18 17 20 19 14 8 11 11 10 10 9 9 10 12 11 12 9 11 12 14 14 13 13 12 11 9 7 5 4 5 6 7 7 7 7 8 8 8 10 10 11 10 10 10 10 10 9 8 7 7 7 7 6 6 6 6 5 5 4 3 5 4 2 3 4 2 3
14 10 8 3 7 8 6 13 12 7 11 6 7 15 15 15 14 14 15 13 15 19 18 15 15 14 15 16 16 16 16 18 19 18 13 6 6 7 8 8 9 10 11 10 12 11 12 11 11 11 13 12 11 10 9 9 8 9 9 6 6 8 8 8 8 9 8 10 11 11 11 11 10 10 10 10 9 9 8 8 8 7 7 7 8 8 7 7 8 6 5 7 6 3 2 1 2
1 0 4 11 12 11 8 12 12 1 6 10 16 19 16 16 15 16 16 13 12 19 21 20 16 14 14 16 17 17 17 20 14 9 11 7 6 7 7 8 10 10 11 11 13 14 15 16 14 16 14 13 13 12 12 13 14 11 8 11 14 12 12 11 10 11 11 11 12 12 11 10 10 10 10 10 10 9 8 7 7 7 7 8 8 9 8 7 5 5 6 4 5 3 1 0 1
5 6 6 12 5 15 11 10 8 2 1 3 6 17 19 16 14 16 15 13 17 18 23 24 22 16 14 16 19 20 18 8 7 10 12 6 5 6 7 7 7 9 11 11 14 16 15 13 14 14 10 12 14 15 14 14 15 16 17 18 16 14 13 13 13 12 13 11 11 10 10 10 11 11 10 10 10 10 10 9 9 10 9 8 7 4 5 5 6 6 6 4 1 3 2 2 1
7 9 7 8 10 11 12 14 12 5 2 12 7 16 15 12 15 17 17 20 19 15 16 21 21 21 17 16 18 16 11 14 10 12 10 6 6 6 6 6 7 11 9 13 13 10 11 13 14 12 12 14 14 14 13 15 13 12 11 7 10 7 7 8 7 8 7 9 9 10 9 10 11 10 11 11 10 10 10 10 10 9 9 8 8 8 7 8 8 9 9 8 5 1 2 1 0
7 7 4 13 3 2 10 2 2 1 1 10 11 21 20 12 17 22 22 20 15 12 13 20 21 17 19 24 14 6 11 14 16 13 12 7 5 4 2 4 5 5 6 6 8 12 11 13 13 13 13 14 13 14 15 11 8 6 4 3 5 6 6 5 5 5 7 6 8 9 10 10 11 11 11 11 10 10 11 12 10 9 10 10 10 10 10 10 9 8 7 5 7 5 2 2 1
7 11 8 8 9 13 10 6 6 7 5 3 9 15 16 10 10 7 13 10 10 15 14 15 19 18 22 15 11 11 12 16 15 16 13 10 6 6 5 5 4 6 8 9 9 11 11 15 14 14 13 14 13 13 13 9 8 7 6 5 5 5 4 6 6 6 8 8 8 10 11 10 12 11 12 13 12 13 12 11 11 11 10 10 9 9 10 12 12 10 10 8 9 8 7 2 0
8 5 10 18 16 10 7 9 7 6 8 5 5 12 14 1 4 8 7 1 5 8 8 15 21 23 15 6 13 10 8 10 11 12 14 9 6 6 5 4 6 8 10 11 10 12 10 10 11 11 10 10 12 14 14 12 13 13 12 11 10 10 9 10 14 17 11 13 16 11 11 14 13 13 12 13 13 12 12 12 11 11 11 10 10 10 9 6 8 10 11 10 8 4 8 6 3
7 8 14 16 11 8 7 11 4 5 2 2 2 2 20 5 4 7 7 4 11 5 7 19 20 16 6 8 9 8 10 8 4 7 6 7 6 6 5 6 7 8 11 7 6 7 8 8 9 12 12 10 11 11 14 12 12 13 17 17 16 16 17 15 13 10 14 13 10 13 13 11 12 13 12 13 13 12 12 12 12 12 11 11 9 8 9 11 11 11 8 7 8 6 7 6 10
9 2 6 7 6 7 7 4 6 8 1 3 2 4 5 24 1 7 7 3 8 10 14 15 16 8 7 9 9 10 9 6 6 5 4 3 5 5 8 7 6 9 7 5 7 6 8 9 8 11 10 10 11 12 15 15 15 15 15 15 14 14 16 15 12 13 11 10 11 12 11 11 12 12 12 12 12 12 12 12 12 11 11 11 10 11 11 10 7 5 7 5 5 6 8 9 8
5 1 6 4 7 6 3 5 5 2 4 9 2 3 4 10 5 3 5 4 9 12 16 16 14 8 6 9 11 11 8 4 3 3 4 5 5 6 5 7 6 5 5 6 7 6 6 5 6 6 9 9 10 13 15 16 15 15 16 15 15 15 13 8 6 6 9 9 11 9 10 10 11 11 12 13 13 13 12 13 12 12 11 11 11 10 8 8 11 10 9 8 8 7 6 5 10
4 4 5 5 5 5 3 4 3 1 1 11 7 6 5 18 11 4 4 0 6 10 16 16 8 5 6 8 9 8 7 4 2 2 2 5 5 6 6 6 6 6 4 4 4 3 4 5 6 8 10 8 8 12 14 16 16 14 14 16 18 14 9 7 8 9 9 9 11 10 10 10 10 10 11 12 12 13 13 13 13 14 14 12 11 11 10 9 9 10 11 11 9 8 5 7 10
3 3 2 3 5 3 3 5 2 1 5 10 14 11 7 12 5 8 8 8 8 7 4 7 8 5 7 5 6 7 7 4 5 4 4 5 5 5 5 6 7 4 3 2 4 4 4 5 6 9 10 8 8 11 12 15 14 14 16 17 18 16 13 10 10 10 9 9 12 12 11 11 10 12 11 10 13 13 13 13 13 13 11 11 11 11 12 12 11 10 9 7 8 10 8 8 4
2 1 2 3 4 5 2 3 2 2 11 4 13 15 14 13 3 5 5 2 3 4 5 6 8 8 6 5 5 5 2 2 4 6 7 6 6 6 5 6 5 4 2 2 3 3 4 5 6 8 7 8 8 9 10 12 12 14 13 14 15 14 13 12 15 14 14 15 14 13 11 9 11 10 10 10 12 13 13 12 11 12 12 12 13 12 11 10 9 9 9 9 9 8 6 7 7
3 3 0 1 6 6 3 2 1 5 11 2 4 7 3 20 10 3 6 8 6 7 8 7 5 8 6 5 6 5 5 5 3 5 5 5 5 5 6 7 6 4 3 4 4 4 4 5 7 8 9 8 10 11 13 14 14 16 16 14 13 12 13 14 14 14 13 14 13 13 13 13 11 11 13 14 14 15 12 12 13 13 12 13 12 11 11 11 11 10 10 11 10 11 11 11 10
7 6 5 4 3 3 5 5 2 6 6 4 5 2 10 7 5 10 16 18 16 8 8 8 7 9 6 6 7 7 7 5 5 5 4 4 6 5 6 6 5 4 3 4 4 4 4 5 6 9 10 9 9 10 12 13 16 15 13 13 13 11 13 14 13 14 13 12 12 14 15 15 15 17 16 16 14 13 12 14 13 13 13 11 12 13 12 12 12 11 12 12 13 11 9 11 10
12 2 11 10 8 4 5 4 10 9 6 2 3 4 9 3 6 2 11 5 3 3 5 6 5 5 5 6 6 7 5 5 5 6 5 3 5 5 6 5 5 4 3 4 4 4 4 6 7 9 9 9 11 12 11 15 15 13 11 10 10 11 12 12 12 11 11 13 12 13 13 12 13 14 14 13 12 15 15 13 14 14 13 12 11 11 10 10 11 10 10 11 9 9 10 10 9
3 3 3 2 9 5 10 5 4 8 3 2 2 8 3 6 1 4 5 5 5 5 2 2 3 3 4 5 7 6 5 4 5 6 9 7 4 5 4 5 4 4 3 2 4 4 5 8 6 8 10 8 10 11 13 14 13 10 10 12 13 11 10 9 9 10 11 11 11 13 13 14 13 12 11 12 14 14 15 15 14 14 14 13 13 13 12 11 11 11 9 9 11 7 10 11 9
3 5 6 9 3 4 4 5 5 1 1 15 4 7 10 7 12 5 4 2 4 4 4 4 6 5 3 4 7 5 4 6 6 6 6 8 5 1 5 6 6 4 1 2 4 4 6 5 5 7 7 6 9 11 12 9 9 10 12 12 10 11 13 14 13 12 11 9 9 10 10 12 10 10 12 13 14 15 15 15 14 14 14 13 13 13 13 12 11 11 11 11 12 10 9 11 9
7 2 8 1 1 2 3 6 2 4 9 10 7 16 11 4 14 2 4 5 4 5 1 3 4 3 4 7 3 4 5 6 6 6 8 8 6 8 13 16 20 20 16 10 8 5 3 4 5 6 6 10 11 9 10 9 10 11 10 12 13 13 12 12 10 10 9 8 9 10 9 9 13 11 10 10 12 14 14 16 14 14 13 12 13 13 13 13 12 11 12 11 10 9 10 8 8
4 5 1 2 5 4 2 4 6 7 11 9 7 13 16 9 17 10 12 17 9 4 4 4 3 2 6 5 5 4 5 6 5 5 5 7 15 19 19 19 16 13 9 8 9 9 8 5 4 4 8 8 7 5 5 6 8 8 8 10 11 12 11 11 9 7 5 9 11 10 11 11 5 8 10 11 11 12 13 14 14 13 13 14 12 13 12 12 13 12 11 11 9 10 10 10 8
2 1 2 0 2 3 2 6 2 0 11 7 11 9 13 8 10 9 9 7 5 6 5 4 6 7 4 5 5 6 9 8 9 14 17 18 18 18 16 15 16 12 10 10 9 7 7 7 6 6 7 6 5 5 5 7 7 8 9 8 10 11 11 11 10 8 9 10 10 9 10 9 11 7 9 10 12 14 14 15 14 15 15 14 14 13 13 13 12 12 12 11 11 12 11 11 10
1 1 4 1 2 2 1 2 2 6 8 8 9 10 7 12 13 14 13 3 4 4 5 5 7 5 6 6 6 6 10 14 17 17 16 17 16 16 15 13 13 11 10 11 10 7 5 4 5 5 7 6 5 5 5 7 6 9 9 11 11 9 12 10 9 10 11 11 9 10 10 10 6 12 11 12 13 14 14 15 15 15 16 15 15 14 13 12 13 13 12 12 11 12 13 11 10
7 10 9 11 7 7 10 12 3 4 6 8 8 16 8 10 11 17 14 1 2 3 3 6 6 7 8 9 13 19 17 17 16 14 14 14 15 16 16 16 13 14 16 17 14 14 15 14 11 9 7 6 6 6 6 7 6 8 9 11 10 8 8 7 10 11 12 11 11 11 10 8 12 11 11 14 14 13 13 14 15 16 15 15 15 15 14 14 15 14 14 11 12 14 13 12 10
Wind_Direction
316 318 303 138 63 115 56 2 317 312 42 261 316 274 263 293 252 331 243 341 237 239 206 79 116 135 171 205 197 193 206 133 206 126 215 238 305 258 209 253 262 137 152 164 167 174 173 176 168 170 172 170 168 166 165 164 164 162 161 163 165 168 165 162 161 156 149 142 139 132 127 124 123 120 120 114 113 97 92 93 90 86 87 91 92 93 86 81 77 73 74 75 70 67 66 65 61
290 316 6 339 6 49 246 113 99 353 38 1 254 117 252 282 20 225 242 197 204 277 329 274 172 95 70 87 181 87 273 215 177 189 275 240 293 213 209 219 182 156 157 168 165 170 172 181 167 165 165 164 162 161 158 161 162 162 161 159 162 163 161 159 156 149 147 146 140 134 127 130 130 130 131 127 130 118 111 110 92 94 98 85 86 89 87 81 72 73 71 72 72 71 71 67 62
349 6 334 23 25 77 93 37 285 65 65 279 274 213 328 291 219 259 229 220 219 277 288 353 101 331 257 333 332 162 257 348 309 287 227 333 124 217 205 184 183 161 157 163 163 165 164 179 167 165 160 159 159 157 159 159 159 159 159 158 160 159 155 154 153 152 152 149 145 142 139 137 134 142 132 127 123 143 146 128 91 88 98 86 80 79 79 76 76 73 73 73 72 71 69 65 61
62 37 135 61 236 34 62 25 92 132 207 216 307 267 203 206 246 230 252 257 256 312 296 207 149 227 176 244 229 40 271 290 195 165 260 214 212 185 178 174 177 156 152 159 163 161 159 177 167 166 167 163 164 162 162 158 163 161 158 160 161 163 158 160 159 159 157 159 155 152 154 155 152 146 140 129 143 145 167 160 143 119 108 103 92 78 75 73 72 71 73 74 72 67 63 61 59
55 340 77 102 108 9 97 139 146 107 248 190 202 266 240 227 249 286 279 286 271 199 103 155 360 277 185 199 248 204 253 246 279 195 256 251 233 170 161 168 164 159 164 167 161 159 166 171 171 168 171 174 173 175 174 171 173 171 171 174 170 166 169 169 169 169 170 167 168 172 165 160 166 161 147 138 140 141 131 127 123 122 101 95 94 87 85 82 80 78 76 73 70 66 63 60 60
50 32 355 79 351 156 58 354 280 209 225 148 221 261 225 225 233 250 285 287 250 199 170 62 185 332 325 227 187 220 203 10 140 224 174 257 187 170 160 161 163 164 167 164 164 162 165 171 184 184 180 183 182 184 185 183 184 181 183 184 180 184 181 184 176 202 188 189 190 183 174 165 169 167 149 150 155 146 137 127 119 103 99 97 91 88 87 86 84 82 80 76 72 69 65 63 61
273 40 356 23 26 53 180 188 233 211 264 158 234 262 271 263 224 322 322 345 165 199 179 224 83 330 333 301 316 241 189 126 103 241 161 292 163 160 154 161 161 169 166 170 167 166 167 171 185 189 189 193 186 185 187 186 191 190 189 193 193 188 193 197 190 197 197 203 193 190 185 155 163 167 155 159 153 153 137 117 105 104 98 95 93 90 90 88 88 85 82 78 75 71 67 65 62
72 133 307 110 217 23 226 241 256 154 274 174 234 240 270 289 167 26 291 73 291 198 298 315 13 118 249 40 239 278 317 216 203 124 218 175 153 159 157 158 165 175 173 173 171 171 171 173 183 187 193 195 204 189 189 193 199 195 185 202 200 192 198 205 198 197 199 194 190 179 156 154 166 164 160 158 151 132 119 114 108 104 101 97 94 93 92 92 91 90 87 83 80 75 72 68 65
359 85 272 74 185 48 49 249 259 222 281 283 271 228 272 265 230 293 288 232 321 269 300 188 221 90 253 1 226 264 289 284 300 253 155 153 166 163 161 169 171 170 177 174 175 173 177 182 183 189 189 197 200 185 183 199 205 207 201 204 201 197 200 195 190 188 188 184 180 178 172 163 165 165 160 153 139 130 123 118 113 108 106 104 101 97 97 96 93 90 86 83 81 77 73 69 66
35 59 282 143 122 257 349 282 130 238 222 243 267 281 267 260 232 188 249 303 219 4 266 280 172 220 310 283 300 299 247 344 307 85 164 171 168 162 167 176 173 164 169 176 179 179 180 190 187 192 189 194 190 184 195 197 200 198 198 199 198 192 189 188 183 184 181 180 175 174 169 165 164 162 154 146 139 132 127 123 118 115 111 107 104 103 100 96 94 90 87 84 80 76 72 70 67
344 14 153 104 24 292 235 277 259 308 278 303 291 254 252 248 213 244 194 237 279 215 328 176 58 242 26 266 224 249 320 341 144 210 183 171 166 170 166 173 164 168 169 177 178 176 182 189 190 192 192 194 189 188 193 195 196 196 194 194 192 189 189 184 182 182 182 179 175 172 169 166 161 155 148 142 136 132 129 126 122 117 112 109 108 104 100 95 92 89 85 82 79 77 74 71 68
333 31 2 100 209 177 249 235 286 281 288 313 271 358 319 157 116 196 224 232 294 255 215 152 245 133 197 312 290 288 316 304 212 239 159 156 167 167 158 157 151 171 168 172 173 181 187 187 189 204 191 195 188 190 191 192 193 193 191 193 191 190 186 184 183 182 180 176 174 171 166 161 156 151 147 141 137 133 130 126 123 118 116 114 108 103 99 96 93 89 86 83 81 78 75 72 70
107 103 77 103 235 164 233 298 257 310 318 295 240 300 14 128 180 233 222 231 119 356 291 214 96 110 283 200 255 313 329 268 199 162 153 151 155 142 136 144 152 158 164 166 169 190 195 192 186 205 191 192 185 185 191 189 193 194 193 192 192 189 186 185 183 182 179 175 172 168 161 156 152 149 146 142 138 134 130 127 123 121 118 114 110 106 101 97 94 91 87 84 81 78 75 72 70
116 180 128 253 66 125 199 258 295 324 296 251 258 289 274 184 234 198 133 195 242 183 234 213 137 134 261 351 304 332 260 306 145 126 118 122 116 122 142 147 151 162 174 172 182 185 194 196 191 196 188 184 183 188 192 186 193 195 194 190 189 187 185 184 183 180 177 172 166 161 155 150 149 147 146 143 140 135 131 129 126 123 119 115 111 106 103 101 97 93 91 87 83 79 77 74 71
130 161 84 125 266 34 239 199 246 134 271 250 271 9 342 254 147 137 176 216 268 207 259 152 181 110 250 158 282 252 265 315 116 108 106 98 98 112 126 146 164 173 186 192 197 184 194 192 194 189 188 173 177 185 187 185 188 193 192 190 184 179 182 182 179 179 171 166 161 153 144 142 145 143 143 142 136 133 132 129 128 125 121 115 111 108 105 102 100 97 92 88 82 78 74 71 70
139 88 78 180 276 141 271 199 55 115 266 206 273 283 307 279 187 157 248 182 254 315 119 228 323 201 224 167 226 229 292 125 129 108 107 102 90 81 115 145 189 210 207 207 205 204 192 189 191 190 184 173 171 175 185 176 186 189 187 182 177 180 180 172 168 169 162 157 147 139 135 128 117 119 123 127 130 124 120 128 129 124 120 116 112 109 107 105 101 97 93 88 82 76 70 65 64
77 80 331 41 279 157 253 177 158 241 247 278 286 301 345 296 277 239 103 75 270 273 292 231 202 66 209 209 220 267 258 127 114 109 107 118 130 144 156 212 221 240 228 221 210 203 199 191 191 186 186 174 169 172 178 173 182 177 179 172 171 176 171 165 163 149 132 125 122 122 115 108 108 102 98 103 104 112 120 122 123 124 119 116 113 111 108 105 102 98 93 87 81 74 66 59 54
63 114 122 263 205 162 211 191 192 220 225 277 325 120 340 306 319 268 66 342 247 283 272 282 290 254 220 229 322 132 144 139 148 142 161 162 165 180 201 210 192 213 207 215 219 208 197 200 189 184 180 183 167 170 174 173 178 173 169 169 167 170 165 161 144 134 129 128 124 120 121 122 121 123 123 120 119 115 113 119 123 123 121 116 114 110 107 102 97 92 86 81 75 68 61 57 46
112 128 112 234 186 238 163 203 213 150 253 231 270 273 232 258 240 295 349 287 311 306 269 261 266 276 279 274 115 131 152 159 166 176 171 179 187 192 201 195 208 211 217 215 214 204 201 192 191 189 185 174 168 170 172 174 176 164 167 163 164 162 158 139 138 135 135 135 132 132 128 127 132 133 132 133 131 123 117 120 125 126 121 117 114 108 103 99 95 90 85 79 72 63 57 54 52
216 125 228 247 213 234 224 197 228 201 259 297 303 300 169 255 141 313 231 275 316 260 265 284 255 259 256 230 136 166 176 183 188 182 191 196 196 198 196 199 208 215 215 207 203 189 194 199 197 187 180 174 171 173 170 175 173 163 165 162 159 152 142 144 141 142 142 143 143 140 137 139 136 142 145 132 120 112 107 99 99 97 98 91 88 85 89 94 91 86 84 77 67 63 64 57 58
262 105 202 231 215 197 251 207 234 243 195 263 258 307 316 269 228 147 216 337 268 249 235 233 252 248 249 237 194 176 193 194 201 208 206 208 211 212 207 202 199 206 207 176 178 199 200 198 187 191 179 175 174 175 173 179 169 161 169 166 158 152 146 147 149 148 150 149 150 146 147 143 144 140 127 118 115 115 108 106 102 104 103 98 95 92 86 81 77 79 72 72 70 73 71 61 65
113 209 225 206 122 224 244 224 213 204 179 209 291 321 264 26 99 217 192 224 264 244 243 218 235 249 243 240 216 186 195 199 206 206 212 209 206 211 215 230 242 226 168 190 207 198 198 195 190 184 179 183 184 177 179 171 160 174 176 172 158 157 157 158 156 158 156 159 157 151 145 139 142 135 136 135 133 133 131 132 128 126 116 112 106 105 97 97 88 86 89 84 75 75 78 74 64
242 268 254 232 209 240 232 217 212 178 232 213 301 251 328 269 280 195 170 212 254 256 230 218 230 235 240 230 143 196 206 211 207 211 210 215 220 222 216 214 204 205 199 214 198 200 190 191 192 180 188 183 189 177 171 172 183 179 172 171 164 173 165 163 172 170 168 164 163 159 149 152 149 150 149 151 152 150 147 146 143 135 124 115 115 116 105 96 99 97 93 92 87 84 80 81 81
230 259 228 273 200 229 248 265 191 238 232 257 217 339 292 279 294 190 188 231 245 266 227 243 241 247 216 198 197 209 207 207 213 214 208 210 208 211 208 207 210 211 207 216 199 198 190 195 190 184 191 183 186 180 177 183 181 177 180 173 177 172 168 179 177 178 167 171 170 166 155 157 159 160 164 161 167 157 157 145 134 121 116 118 116 117 119 109 106 104 107 103 102 99 103 95 85
206 269 215 266 171 243 264 258 273 269 262 260 309 284 266 255 250 332 237 241 259 262 262 243 258 255 242 235 230 225 224 227 232 228 231 237 230 233 238 240 215 205 220 208 206 199 198 191 186 193 190 189 185 178 187 185 179 180 180 182 184 178 182 182 177 169 175 174 173 167 160 158 161 161 165 169 155 164 149 139 133 129 123 130 125 117 127 131 125 129 130 134 125 126 126 114 108
207 233 220 278 267 277 266 302 253 246 268 189 254 256 266 274 276 259 254 249 252 264 283 263 251 258 246 237 235 222 226 226 228 231 224 224 227 227 231 215 211 215 217 204 203 209 194 187 192 195 191 189 184 178 192 183 185 186 190 190 184 181 189 179 170 180 179 172 177 176 172 167 170 170 168 163 165 163 154 138 131 139 141 144 138 141 147 137 144 139 138 140 140 144 128 127 108
170 234 242 257 265 293 280 220 258 218 232 167 194 255 268 283 70 282 134 234 244 263 263 285 234 244 247 239 238 230 226 231 222 225 250 230 224 220 228 213 213 224 199 213 207 203 193 187 199 195 192 189 181 190 190 192 183 194 192 187 184 191 182 175 182 183 180 183 177 172 172 172 165 165 166 166 166 156 154 149 148 146 146 158 149 143 142 146 145 151 157 156 154 142 115 98 96
240 235 306 280 282 257 245 237 260 154 277 188 199 244 270 297 143 254 266 247 312 284 284 282 258 257 259 244 239 237 230 239 233 200 228 220 221 214 220 209 218 217 202 216 208 190 189 198 194 192 193 190 187 194 191 192 193 195 189 187 192 189 176 186 186 185 188 185 176 174 173 171 167 167 166 168 165 159 160 159 157 159 166 157 151 147 149 146 146 144 138 139 136 122 110 86 79
231 31 316 288 335 319 269 238 251 159 249 153 170 234 304 273 224 248 248 280 156 256 276 279 279 268 264 255 245 240 232 238 213 218 229 227 227 211 222 215 214 208 217 213 199 187 201 194 191 194 191 191 192 194 195 196 192 191 189 194 190 183 184 186 190 191 190 185 177 176 173 169 170 168 171 172 166 160 157 158 163 172 164 158 151 151 142 140 134 135 122 121 106 98 91 66 77
24 60 161 319 324 302 289 156 34 150 249 146 144 284 212 254 259 258 264 273 272 265 267 268 272 278 275 268 246 251 248 235 221 225 230 230 231 218 224 224 211 210 209 200 185 206 200 190 193 187 192 194 197 195 195 194 194 193 193 191 187 183 189 190 195 191 187 184 180 178 172 173 170 169 164 168 161 156 158 166 167 172 167 160 154 151 152 157 148 138 142 120 94 88 83 62 66
269 251 115 252 357 270 279 157 119 274 199 175 120 253 244 256 271 276 268 222 235 256 265 272 269 271 273 272 262 254 258 224 229 231 233 233 231 228 228 233 207 209 195 192 201 209 181 195 185 193 193 197 194 197 196 198 193 193 190 189 189 188 189 193 192 186 186 185 179 180 177 174 170 169 169 165 164 161 162 167 175 177 164 160 159 168 154 153 146 142 144 112 89 79 84 72 74
340 1 276 327 196 277 297 291 184 235 308 203 135 258 253 248 258 273 360 117 143 232 255 267 270 268 268 272 275 268 261 249 238 239 236 233 226 230 226 229 208 203 204 205 207 184 197 195 190 196 190 197 198 198 198 197 194 193 192 190 189 188 189 193 190 189 186 179 182 179 179 175 172 172 170 165 163 169 170 175 176 163 168 161 164 160 151 155 150 132 111 132 117 96 102 64 69
351 199 273 267 228 263 344 287 175 214 167 252 178 248 288 282 255 269 284 225 194 233 265 264 267 266 269 269 269 273 277 274 247 238 240 232 228 225 229 228 209 210 209 204 197 193 200 194 193 195 194 198 199 198 198 198 194 193 192 192 191 188 192 193 191 183 182 181 180 180 181 180 176 172 171 170 164 170 173 171 168 169 165 165 162 164 161 157 152 141 121 81 135 141 125 120 65
274 123 225 202 243 285 262 305 288 163 172 219 241 244 242 260 281 292 302 284 243 255 266 271 273 274 271 270 267 266 265 266 271 258 241 228 232 223 228 227 219 217 215 210 203 195 199 192 195 198 200 196 195 194 196 195 194 189 191 190 188 192 197 194 186 179 186 182 179 187 180 183 178 174 172 171 169 171 171 167 162 167 165 161 160 161 164 148 146 148 127 79 115 123 130 123 104
234 237 256 277 255 235 253 313 263 69 139 222 294 245 262 269 280 283 271 285 286 273 270 269 270 270 270 264 259 259 260 264 262 265 258 230 228 229 228 228 223 215 214 211 206 206 197 194 195 201 198 193 192 192 190 184 175 174 162 169 184 194 198 193 178 184 187 183 190 186 181 184 178 176 173 170 167 166 165 166 165 170 164 163 159 160 156 157 151 154 140 112 77 87 132 150 131
232 229 250 265 270 245 224 239 262 273 282 286 241 258 264 267 268 272 275 266 278 280 276 273 265 262 265 262 257 258 258 261 257 261 272 255 227 223 220 215 215 212 212 202 203 199 199 194 196 198 198 186 185 181 173 177 173 180 179 168 190 205 195 189 188 192 184 193 194 186 185 184 177 176 174 171 168 166 168 172 169 166 169 165 167 168 174 176 169 149 147 134 124 81 35 92 103
329 164 234 253 259 273 264 269 268 61 309 239 261 264 261 263 263 266 267 274 276 281 280 275 269 261 259 264 262 258 256 252 268 282 275 257 233 219 215 204 211 210 210 200 199 201 198 197 187 201 192 183 181 178 181 180 183 183 187 197 205 195 193 190 191 194 194 198 191 190 184 183 177 174 173 169 174 168 169 162 163 172 174 176 180 187 176 167 164 155 143 132 134 121 87 352 170
245 264 260 264 238 270 255 282 282 77 258 261 220 272 268 266 268 265 268 268 259 255 271 276 275 268 260 261 265 263 260 289 286 277 270 265 242 225 211 208 197 204 219 203 205 204 201 195 197 200 177 189 190 189 186 188 191 188 187 196 196 190 185 187 198 195 199 194 191 188 183 181 177 177 172 174 171 170 168 170 175 178 176 183 183 162 163 165 157 158 155 109 37 135 158 204 217
251 239 262 288 262 267 277 265 282 286 180 277 266 268 266 263 257 259 253 250 250 239 244 263 271 275 273 267 259 270 295 281 280 265 274 264 240 235 215 216 215 215 212 206 211 200 199 198 205 190 189 188 194 190 186 197 193 196 197 195 189 189 203 208 206 198 186 188 186 183 182 182 177 176 175 175 172 176 174 172 182 176 180 173 167 172 173 176 178 174 180 158 134 52 121 193 184
235 251 268 247 277 324 295 220 360 311 211 299 299 292 286 261 248 247 247 249 251 253 241 252 257 263 267 261 267 305 284 288 284 284 281 278 240 269 292 271 245 236 233 221 210 205 203 206 202 194 194 193 191 193 195 193 186 176 170 109 156 154 175 164 168 159 179 166 182 182 190 182 178 182 174 175 178 177 177 181 175 177 183 183 179 173 180 183 180 185 187 188 150 131 165 178 81
208 220 236 277 255 241 239 275 333 310 280 253 308 289 279 219 241 246 265 247 255 260 250 255 267 259 249 269 297 254 264 270 280 289 290 290 348 334 284 263 261 238 232 224 210 207 206 207 201 196 194 193 192 189 186 168 149 142 128 88 106 92 86 152 162 191 183 181 180 193 192 178 183 181 179 182 179 181 181 180 178 182 180 183 182 183 185 189 186 185 181 174 188 155 174 162 158
250 213 196 235 248 270 263 281 349 356 313 351 35 330 304 210 177 227 268 20 225 248 241 251 251 252 260 272 261 274 244 259 268 278 288 353 357 332 309 258 234 234 234 227 214 216 210 207 198 197 194 191 191 186 179 169 175 171 164 164 170 181 188 182 197 198 176 188 199 186 184 190 184 184 182 181 183 180 183 182 180 177 181 182 188 191 186 169 184 187 193 187 189 207 146 149 123
279 264 207 230 243 244 260 277 7 290 230 289 46 116 293 160 228 244 247 232 245 266 213 240 242 250 276 264 273 271 278 281 273 281 351 360 334 310 287 253 237 241 244 230 223 223 219 213 200 196 194 192 188 183 176 176 179 183 187 190 189 188 196 208 204 188 190 195 184 186 191 185 188 184 184 184 185 184 181 181 181 183 183 185 184 180 185 192 190 193 179 190 194 158 140 141 159
265 241 185 210 219 222 236 222 193 248 270 280 163 147 247 301 318 220 220 193 254 258 255 257 263 282 290 279 273 281 279 282 304 335 7 320 284 275 280 276 248 240 246 219 222 217 212 210 198 197 195 191 185 178 181 185 186 188 190 196 197 201 206 206 186 192 188 185 187 187 179 186 187 188 183 186 186 184 183 183 182 181 183 186 182 191 194 191 181 186 187 192 170 186 173 155 161
223 250 151 182 204 209 157 170 201 223 26 304 188 93 290 255 271 13 132 137 245 248 255 260 263 262 261 271 281 280 285 348 357 11 339 294 286 287 279 286 281 275 261 229 228 219 210 203 200 198 204 195 189 183 185 191 192 191 193 195 201 212 208 195 169 171 182 181 187 183 183 182 184 191 188 185 187 186 185 185 182 183 184 186 189 193 193 182 186 179 178 180 189 194 192 156 149
263 114 78 73 70 64 133 128 135 323 26 264 171 176 225 278 284 108 3 142 250 243 246 251 265 293 275 277 284 294 313 1 79 99 277 280 287 294 290 289 295 273 260 249 253 219 200 189 192 190 203 197 193 193 193 194 195 190 196 202 206 206 191 168 158 173 179 174 187 184 185 181 187 188 192 191 186 188 187 184 185 187 189 186 188 190 183 182 185 190 188 187 182 180 185 172 175
119 87 67 3 34 37 23 64 94 52 259 255 170 196 164 274 293 174 138 199 202 239 276 303 312 295 272 263 273 287 306 333 330 299 273 277 288 278 294 301 289 306 289 250 235 206 191 186 194 201 202 192 194 199 197 200 198 198 204 203 204 201 189 171 168 180 172 173 189 187 185 189 184 193 190 192 193 189 189 187 188 190 187 187 187 184 190 187 189 186 184 181 185 181 179 178 167
145 219 132 17 300 16 32 338 32 204 272 240 184 179 182 223 279 286 235 270 224 187 239 263 289 280 271 277 272 265 289 301 301 318 320 321 322 318 327 311 308 305 331 263 237 206 195 194 191 205 204 197 189 193 200 207 205 210 214 209 208 204 186 186 189 186 183 186 187 186 185 180 192 189 187 192 196 192 190 190 187 187 190 187 192 192 188 187 180 177 176 183 186 186 172 173 169
134 99 47 260 272 28 312 25 308 183 233 286 203 163 346 245 245 259 281 269 271 221 216 241 237 266 272 272 277 303 311 302 302 302 315 313 315 320 326 324 327 314 265 247 232 213 204 198 196 201 211 196 196 191 199 203 205 211 210 208 210 201 198 196 198 194 188 189 187 185 181 192 184 185 195 196 199 190 186 185 189 192 193 196 192 185 188 180 178 180 182 184 183 183 185 181 176
130 162 167 122 272 248 256 269 259 293 294 259 162 217 245 283 297 225 245 250 252 237 219 236 232 231 258 299 309 310 313 317 302 293 294 299 283 293 300 301 296 289 265 241 235 215 210 210 204 207 215 195 197 198 202 205 214 216 212 212 209 201 206 202 203 200 194 195 189 191 189 188 187 196 192 199 190 183 189 197 192 195 197 191 190 190 185 184 180 182 182 184 189 192 180 185 188
196 98 158 193 172 162 253 199 244 240 238 349 272 123 236 104 239 233 223 262 343 274 239 242 248 262 274 273 292 294 292 316 311 288 256 279 310 287 274 271 279 259 224 225 226 222 211 221 211 215 216 206 199 202 200 209 212 213 218 220 216 213 212 208 209 205 197 196 196 194 194 191 195 196 195 191 175 187 192 190 194 193 191 191 189 190 190 185 185 184 187 191 188 185 187 182 185
192 166 66 49 240 133 236 227 240 284 331 318 219 217 211 218 271 275 229 267 290 276 331 5 312 294 318 317 291 284 298 289 284 310 329 334 281 263 259 270 266 258 234 225 232 225 221 228 221 223 221 214 210 207 212 211 211 204 212 217 220 218 220 219 218 211 209 201 200 197 196 195 198 190 190 180 190 184 189 192 190 195 190 189 189 189 186 186 186 186 188 188 191 186 185 187 187
214 105 199 218 150 155 291 320 260 213 354 256 218 286 271 299 274 248 306 325 291 313 289 276 271 279 310 264 253 271 309 310 317 320 310 298 328 254 218 214 208 197 207 250 272 248 246 241 227 231 230 225 220 219 218 213 213 210 212 214 217 220 220 218 217 214 209 199 197 205 204 205 195 189 190 188 183 187 188 188 189 192 192 191 188 188 187 186 185 190 190 190 193 186 187 191 180
107 181 236 64 142 117 161 236 357 234 241 268 269 266 277 337 284 42 19 41 351 9 346 295 279 260 282 251 293 323 293 288 282 281 272 271 278 332 353 2 20 13 359 343 317 294 287 273 247 241 235 230 229 221 218 213 212 218 220 216 216 218 223 230 228 223 210 202 200 198 202 199 204 198 188 186 185 184 186 187 189 190 192 189 192 189 188 187 184 192 194 195 193 178 187 188 188
191 192 284 140 244 264 266 80 247 242 245 262 224 274 274 247 263 285 300 294 296 282 294 345 311 297 249 281 306 298 285 283 286 269 284 329 358 6 7 6 15 17 354 322 310 319 326 305 274 259 256 251 253 248 241 235 224 224 219 221 219 220 222 226 229 229 217 217 211 205 202 205 187 191 189 185 185 186 187 189 189 189 187 191 189 192 188 188 187 191 191 193 185 180 186 189 186
46 8 332 193 91 232 164 197 215 274 265 252 255 245 264 258 262 266 265 264 297 301 326 272 254 247 276 292 290 312 323 329 344 359 7 9 7 7 9 7 4 5 356 341 325 324 316 303 304 290 285 281 271 254 240 237 235 235 236 228 225 222 221 218 214 213 218 221 219 211 206 196 203 187 198 185 187 189 188 188 191 188 188 187 189 191 188 190 188 196 190 190 188 181 187 189 185
207 69 268 262 209 224 83 320 203 231 261 235 270 248 251 255 261 264 265 211 224 236 265 283 297 295 276 276 271 303 344 6 12 13 12 9 7 7 7 8 5 359 2 3 5 347 299 279 264 257 261 268 267 258 247 244 233 236 236 236 235 228 228 222 216 210 215 218 214 212 213 212 174 198 186 192 196 193 191 191 188 190 189 187 187 188 189 189 192 195 195 193 184 186 189 191 179
190 180 210 214 217 257 257 257 149 237 219 248 249 254 239 250 265 269 283 193 212 272 286 303 297 293 294 311 348 18 21 20 21 16 13 9 6 2 2 6 7 7 5 3 357 0 5 358 343 329 325 305 286 272 249 252 243 240 235 236 235 235 237 230 229 223 223 220 213 211 207 191 207 205 189 199 196 194 193 192 192 194 191 188 187 189 187 188 193 194 196 191 188 187 191 188 180